Content
SEND FEEDBACK

Daily
Averages
Monthly
Summary
United States of America

ROCK HILL, NEW YORK


Home > North America > United States > New York
Elevation: 384 meters     Latitude: 41 35N     Longitude: 074 37W

WEATHER
 
SELECT A DAY
Number of Records: 443,913;   Date Range: 1/1/95 - 9/3/14
 
SHARE

PRINT THIS DATA

[ ← Previous Day ]
WEATHER ALMANAC - 22 OCTOBER, 2013
[ Next Day → ]
[ °F ]   °C
Weather ElementAverageHighLow
Temperature7.9 °C13 °C (2:15 pm)2 °C (11:35 pm)
Dewpoint1.7 °C6 °C (10:55 am)-3 °C (9:15 pm)
Humidity66.3 %81 % (3:15 am)44 % (5:15 pm)
Barometer1010.2 hPa1014.2 hPa (12:35 am)1007.8 hPa (2:35 pm)
Wind Speed7.1 km/h22.2 km/h (3:35 pm)
Wind Gust31.5 km/h (3:15 pm)
Weather ElementAverage
Visibility16.1 km
Wind DirectionSSE (157.3 °)

Weather ElementTotal
Precipitation---
Heating Degree Days10.8 (Base 18.3)
Averaged from 71 records on 22 October, 2013
WEATHER CONDITIONS BREAKOUT
WIND DIRECTION BREAKOUT
WEATHER BY HOUR - 22 OCTOBER, 2013
[ °F ]   °C
Local TimeTemperatureDewpointHumidityBarometerVisibilityWind DirectionWind SpeedGust SpeedPrecipitationEventsConditions
12:35 AM7 °C0 °C61 %1014.2 hPa16.1 kmCalmClear
12:55 AM6 °C0 °C66 %1014.2 hPa16.1 kmCalmClear
1:15 AM6 °C0 °C66 %1014.2 hPa16.1 kmNE (50°)7.4 km/hClear
1:35 AM5 °C0 °C70 %1014.2 hPa16.1 kmNorth (10°)5.6 km/hClear
1:55 AM5 °C1 °C76 %1013.9 hPa16.1 kmCalmClear
2:15 AM6 °C1 °C70 %1013.9 hPa16.1 kmEast (100°)5.6 km/hClear
2:35 AM5 °C1 °C76 %1013.5 hPa16.1 kmEast (90°)5.6 km/hClear
2:55 AM5 °C1 °C76 %1012.9 hPa16.1 kmCalmClear
3:15 AM4 °C1 °C81 %1012.9 hPa16.1 kmCalmScattered Clouds
3:35 AM4 °C1 °C81 %1012.2 hPa16.1 kmCalmMostly Cloudy
3:55 AM6 °C1 °C70 %1012.2 hPa16.1 kmSSE (160°)5.6 km/hScattered Clouds
4:15 AM6 °C2 °C76 %1012.2 hPa16.1 kmSE (140°)7.4 km/hScattered Clouds
4:35 AM4 °C1 °C81 %1011.9 hPa16.1 kmCalmPartly Cloudy
4:55 AM4 °C1 °C81 %1011.5 hPa16.1 kmESE (120°)7.4 km/hScattered Clouds
5:15 AM6 °C2 °C76 %1011.2 hPa16.1 kmSouth (170°)7.4 km/hMostly Cloudy
5:35 AM7 °C3 °C76 %1011.2 hPa16.1 kmSSE (160°)7.4 km/hOvercast
5:55 AM7 °C3 °C76 %1011.2 hPa16.1 kmSouth (170°)7.4 km/hOvercast
6:15 AM7 °C3 °C76 %1010.8 hPa16.1 kmSE (140°)7.4 km/hOvercast
6:35 AM6 °C3 °C81 %1010.8 hPa16.1 kmCalmOvercast
6:55 AM6 °C3 °C81 %1010.5 hPa16.1 kmCalmOvercast
7:15 AM6 °C3 °C81 %1010.2 hPa16.1 kmCalmOvercast
7:35 AM6 °C3 °C81 %1010.2 hPa16.1 kmCalmOvercast
7:55 AM7 °C3 °C76 %1010.2 hPa16.1 kmCalmOvercast
8:15 AM7 °C4 °C81 %1010.2 hPa14.5 kmCalmOvercast
8:35 AM7 °C4 °C81 %1010.2 hPa16.1 kmCalmOvercast
8:55 AM7 °C4 °C81 %1010.2 hPa16.1 kmCalmOvercast
9:15 AM8 °C4 °C76 %1010.2 hPa16.1 kmCalmMostly Cloudy
9:35 AM8 °C5 °C81 %1010.2 hPa16.1 kmSouth (170°)5.6 km/hMostly Cloudy
9:55 AM9 °C5 °C76 %1010.2 hPa16.1 kmCalmMostly Cloudy
10:15 AM9 °C5 °C76 %1010.2 hPa16.1 kmCalmMostly Cloudy
10:35 AM9 °C5 °C76 %1010.2 hPa16.1 kmCalmScattered Clouds
10:55 AM10 °C6 °C76 %1010.2 hPa16.1 kmCalmScattered Clouds
11:15 AM11 °C6 °C71 %1010.2 hPa16.1 kmNW (310°)11.1 km/hMostly Cloudy
11:35 AM10 °C6 °C76 %1010.2 hPa16.1 kmWest (270°)13 km/hOvercast
11:55 AM11 °C6 °C71 %1009.5 hPa16.1 kmCalmScattered Clouds
12:15 PM11 °C6 °C71 %1009.5 hPa16.1 kmWSW (240°)9.3 km/hClear
12:35 PM11 °C6 °C71 %1009.1 hPa16.1 kmSouth (190°)9.3 km/hPartly Cloudy
12:55 PM12 °C6 °C67 %1009.1 hPa16.1 kmWest (260°)13 km/hPartly Cloudy
1:15 PM11 °C5 °C67 %1009.1 hPa16.1 kmWSW (240°)7.4 km/hMostly Cloudy
1:35 PM12 °C5 °C62 %1008.5 hPa16.1 kmWest (260°)5.6 km/hOvercast
1:55 PM12 °C6 °C67 %1008.5 hPa16.1 kmSW (230°)11.1 km/hOvercast
2:15 PM13 °C4 °C54 %1008.1 hPa16.1 kmWSW (240°)13 km/h27.8 km/hMostly Cloudy
2:35 PM13 °C3 °C51 %1007.8 hPa16.1 kmWest (260°)11.1 km/hPartly Cloudy
2:55 PM13 °C4 °C54 %1007.8 hPa16.1 kmWest (270°)13 km/hClear
3:15 PM13 °C3 °C51 %1007.8 hPa16.1 kmWSW (250°)13 km/h31.5 km/hScattered Clouds
3:35 PM13 °C3 °C51 %1007.8 hPa16.1 kmWest (280°)22.2 km/hMostly Cloudy
3:55 PM13 °C3 °C51 %1007.8 hPa16.1 kmNW (320°)13 km/hScattered Clouds
4:15 PM12 °C3 °C54 %1007.8 hPa16.1 kmWNW (300°)13 km/hPartly Cloudy
4:35 PM12 °C3 °C54 %1007.8 hPa16.1 kmWest (280°)16.7 km/h25.9 km/hClear
4:55 PM12 °C2 °C51 %1008.1 hPa16.1 kmWNW (300°)14.8 km/hScattered Clouds
5:15 PM13 °C1 °C44 %1008.5 hPa16.1 kmWNW (300°)13 km/hOvercast
5:35 PM12 °C1 °C47 %1008.1 hPa16.1 kmWNW (290°)11.1 km/hScattered Clouds
5:55 PM11 °C-1 °C44 %1008.8 hPa16.1 kmNW (310°)14.8 km/hClear
6:15 PM10 °C-1 °C47 %1008.8 hPa16.1 kmNW (320°)16.7 km/hClear
6:35 PM9 °C0 °C54 %1009.1 hPa16.1 kmNW (320°)16.7 km/hClear
6:55 PM9 °C0 °C54 %1009.5 hPa16.1 kmNW (310°)14.8 km/hClear
7:15 PM8 °C0 °C57 %1009.5 hPa16.1 kmNW (320°)13 km/hClear
7:35 PM8 °C-1 °C53 %1009.5 hPa16.1 kmNW (320°)14.8 km/hClear
7:55 PM7 °C-1 °C57 %1009.5 hPa16.1 kmNW (310°)14.8 km/hClear
8:15 PM7 °C-2 °C53 %1009.8 hPa16.1 kmWNW (290°)13 km/hClear
8:35 PM7 °C-2 °C53 %1009.8 hPa16.1 kmWNW (290°)9.3 km/hClear
8:55 PM7 °C-2 °C53 %1009.8 hPa16.1 kmWNW (290°)11.1 km/hClear
9:15 PM6 °C-3 °C53 %1009.8 hPa16.1 kmWNW (300°)13 km/hClear
9:35 PM6 °C-3 °C53 %1010.2 hPa16.1 kmWNW (290°)7.4 km/hClear
9:55 PM5 °C-3 °C57 %1010.5 hPa16.1 kmWSW (250°)7.4 km/hClear
10:15 PM4 °C-3 °C61 %1010.5 hPa16.1 kmWest (280°)9.3 km/hClear
10:35 PM4 °C-3 °C61 %1010.5 hPa16.1 kmWest (270°)5.6 km/hClear
10:55 PM3 °C-3 °C65 %1010.8 hPa16.1 kmCalmClear
11:15 PM3 °C-3 °C65 %1010.5 hPa16.1 kmCalmClear
11:35 PM2 °C-3 °C70 %1010.5 hPa16.1 kmSE (130°)5.6 km/hClear
11:55 PM2 °C-3 °C70 %1010.2 hPa16.1 kmCalmClear
Hourly data recorded from KMSV, located 0 kilometers away from Rock Hill, New York







STORIES FROM OUR PARTNERS